{"data":{"norad_id":64825,"epoch":"2026-05-25T04:12:41.229216Z","epoch_age_seconds":70137,"freshness":"FRESH","line1":"1 64825U 25151K   26145.17547719  .00002673  00000+0  37938-3 0  9998","line2":"2 64825  51.9017 317.3713 0000695 120.9588 239.1443 14.79938914 46706","mean_motion":14.79938914,"eccentricity":6.95e-5,"inclination_deg":51.9017,"raan_deg":317.3713,"arg_perigee_deg":120.9588,"mean_anomaly_deg":239.1443,"bstar":0.00037938,"rev_number":4670,"period_min":97.301313343261,"perigee_km":629.02992825442,"apogee_km":630.00399215489,"semimajor_km":7007.6539602047,"source":"CELESTRAK","updated_at":"2026-05-25T13:38:04.823954Z"}}